[[{"header":{"parameterUnit":"m.s-1","parameterCategory":1,"la1":30.2991,"la2":30.254,"lo1":-89.0895,"lo2":-89.0444,"dy":0.0017,"dx":0.0017,"nx":28,"ny":28,"refTime":"2025-04-23T03:00:00:Z","depth":0,"parameterNumber":2,"parameterNumberName":"U-component_of_WINDS"},"data":[0,0,0,0,0,0,0,0,0,0,0,0,0,0,0,0,0,0,0,0,0,0,0,0,0,0,0,0,0,0,0,0,0,0,0,0,0,0,0,0,0,0,0,0,0,0,0,0,0,0,0,0,0,0,0,0,0,0,-2.3564,-2.3563,0,-2.3481,-2.348,-2.3479,-2.3384,-2.3383,-2.3381,-2.338,-2.3293,-2.3292,-2.3291,0,0,0,0,0,0,0,0,0,0,0,0,0,-2.364,-2.3639,-2.3564,-2.3563,-2.3562,-2.3481,-2.348,-2.3479,-2.3385,-2.3383,-2.3381,-2.3379,-2.3293,-2.3292,-2.3291,0,0,0,0,0,0,0,0,0,0,0,0,0,-2.3587,-2.3638,-2.3564,-2.3505,-2.3499,-2.3482,-2.348,-2.3479,-2.3385,-2.3383,-2.3381,-2.3379,-2.3294,-2.3292,-2.3291,-2.3324,0,0,-2.3286,-2.3285,0,0,0,0,0,0,0,0,-2.359,-2.3584,-2.3515,-2.3509,-2.3502,-2.3441,-2.3475,-2.3427,-2.3385,-2.3428,-2.338,-2.3378,-2.3344,-2.3338,-2.3327,-2.332,-2.3316,-2.3286,-2.3285,-2.3284,-2.3284,0,0,0,0,0,0,0,-2.3594,-2.3587,-2.3531,-2.3514,-2.3506,-2.3483,-2.3473,-2.3465,-2.3399,-2.3424,-2.3417,-2.3409,-2.334,-2.3329,-2.3324,-2.3315,-2.3286,-2.3285,-2.3284,-2.3283,-2.3332,-2.3334,0,0,0,0,0,0,-2.3606,-2.3591,-2.3534,-2.3529,-2.3542,-2.3483,-2.3472,-2.3463,-2.3399,-2.3387,-2.3411,-2.3405,-2.3332,-2.3326,-2.3321,-2.3356,-2.3284,-2.3283,-2.3282,-2.333,-2.3333,-2.3335,0,0,0,0,0,0,-2.3608,-2.3602,-2.3537,-2.3558,-2.3548,-2.3484,-2.3474,-2.3462,-2.3451,-2.3388,-2.3376,-2.3412,-2.333,-2.3323,-2.3324,-2.3351,-2.3282,-2.3281,-2.3327,-2.3331,-2.3334,-2.3426,0,0,0,0,0,0,-2.3611,-2.3604,-2.3616,-2.3559,-2.3547,-2.3543,-2.3476,-2.3462,-2.3449,-2.344,-2.3386,-2.3375,-2.3328,-2.3327,-2.3323,-2.3348,-2.328,-2.3325,-2.3329,-2.3333,-2.342,-2.3432,-2.3442,0,0,0,0,0,-2.3614,-2.3644,-2.3617,-2.361,-2.3561,-2.3544,-2.3537,-2.3484,-2.3452,-2.3463,-2.3423,-2.3377,-2.335,-2.3328,-2.3322,-2.3348,-2.3323,-2.3328,-2.3332,-2.3415,-2.343,-2.3442,0,0,0,0,0,0,-2.3704,-2.3635,-2.3604,-2.3617,-2.3587,-2.3528,-2.3541,-2.3501,-2.3479,-2.3471,-2.3405,-2.3394,-2.3403,-2.3376,-2.3353,-2.3377,-2.3329,-2.3334,-2.3394,-2.3408,-2.3418,-2.3424,-2.3279,0,0,0,0,0,-2.3726,-2.3718,-2.3659,-2.3676,-2.3663,-2.3605,-2.3596,-2.3557,-2.3523,-2.351,-2.347,-2.3439,-2.3423,-2.3414,-2.3396,-2.3417,-2.3403,-2.3431,-2.3443,-2.3452,-2.3456,-2.3465,-2.3477,-2.3351,-2.3351,-2.3351,0,0,-2.3769,-2.3731,-2.373,-2.3693,-2.3665,-2.3659,-2.3595,-2.359,-2.3585,-2.3509,-2.3508,-2.3478,-2.3439,-2.345,-2.3453,-2.3427,-2.3488,-2.3458,-2.3466,-2.3464,-2.3471,-2.3483,-2.3494,-2.3355,-2.3354,-2.3353,0,0,-2.3846,-2.3817,-2.3828,-2.3802,-2.3762,-2.3724,-2.3727,-2.3675,-2.3652,-2.3651,-2.3594,-2.3587,-2.3561,-2.3536,-2.3519,-2.359,-2.3546,-2.3586,-2.3643,-2.3653,-2.3663,-2.3671,-2.3696,-2.3705,-2.3591,-2.3591,-2.3591,0,-2.3905,-2.3894,-2.3838,-2.3838,-2.3823,-2.3757,-2.3767,-2.3745,-2.3701,-2.3692,-2.3665,-2.3633,-2.3602,-2.3606,-2.3624,-2.3613,-2.3614,-2.3591,-2.3666,-2.3674,-2.3681,-2.3703,-2.3713,-2.3596,-2.3595,-2.3595,-2.3594,0,-2.3968,-2.3962,-2.3976,-2.3936,-2.3923,-2.3929,-2.3874,-2.3868,-2.3832,-2.3797,-2.3797,-2.3758,-2.3731,-2.373,-2.3694,-2.373,-2.3715,-2.3678,-2.3628,-2.3699,-2.3719,-2.3727,-2.3603,-2.3601,-2.36,-2.3598,0,0,-2.4096,-2.4028,-2.4034,-2.4016,-2.3968,-2.3962,-2.3965,-2.3941,-2.3936,-2.3909,-2.391,-2.3892,-2.3857,-2.3839,-2.38,-2.3809,-2.3867,-2.377,-2.3768,-2.3789,-2.3905,-2.3933,-2.3944,-2.3839,-2.3841,-2.3842,-2.3908,0,-2.4163,-2.4164,-2.4116,-2.4131,-2.4124,-2.4062,-2.4065,-2.4036,-2.4004,-2.3994,-2.3958,-2.3946,-2.3902,-2.3891,-2.3897,-2.3859,-2.389,-2.3854,-2.3838,-2.3839,-2.3849,-2.3954,-2.3983,-2.4047,-2.3916,-2.3917,-2.3918,0,-2.424,-2.4219,-2.4234,-2.4187,-2.4183,-2.4186,-2.416,-2.4152,-2.4118,-2.4094,-2.4076,-2.4032,-2.4032,-2.3987,-2.3986,-2.3963,-2.3954,-2.3935,-2.3936,-2.3931,-2.3881,-2.3951,-2.4066,-2.4075,-2.393,-2.3929,-2.3928,0,-2.4331,-2.4307,-2.4312,-2.4299,-2.4245,-2.4249,-2.4226,-2.4191,-2.418,-2.4158,-2.415,-2.4128,-2.4116,-2.41,-2.4052,-2.4023,-2.4056,-2.4007,-2.4036,-2.4037,-2.4043,-2.4043,-2.4158,-2.4041,-2.4041,-2.4041,-2.404,0,-2.441,-2.4421,-2.4353,-2.4356,-2.4367,-2.4312,-2.4324,-2.4296,-2.4266,-2.4262,-2.4208,-2.4206,-2.4143,-2.4134,-2.4096,-2.4101,-2.4096,-2.4077,-2.4066,-2.4081,-2.4083,-2.4073,-2.4066,-2.4043,-2.4042,-2.4042,-2.4042,0,-2.4512,-2.4467,-2.4469,-2.4419,-2.4406,-2.4417,-2.4373,-2.4375,-2.4341,-2.4338,-2.4334,-2.428,-2.4267,-2.4218,-2.4193,-2.4167,-2.4184,-2.4165,-2.4196,-2.4188,-2.422,-2.4217,-2.433,-2.4342,-2.4219,-2.4221,-2.4222,0,-2.4564,-2.4572,-2.4523,-2.4518,-2.4498,-2.449,-2.4479,-2.4426,-2.4417,-2.4381,-2.4386,-2.437,-2.4353,-2.4335,-2.4293,-2.4274,-2.4253,-2.4294,-2.425,-2.4265,-2.4253,-2.4252,-2.4253,-2.4303,-2.4305,-2.4306,-2.4307,0,-2.4662,-2.464,-2.4626,-2.4606,-2.4595,-2.4576,-2.4554,-2.4553,-2.4494,-2.4487,-2.4473,-2.4461,-2.4436,-2.442,-2.4394,-2.4371,-2.4329,-2.4322,-2.4328,-2.4341,-2.4359,-2.4349,-2.422,-2.4319,-2.4318,-2.4317,-2.4316,-2.4316,-2.474,-2.4744,-2.4711,-2.4698,-2.4677,-2.4658,-2.4657,-2.4624,-2.4612,-2.4589,-2.4559,-2.4549,-2.4517,-2.4479,-2.4459,-2.4451,-2.4428,-2.4436,-2.4438,-2.444,-2.4447,-2.4362,-2.4446,-2.4446,-2.4446,-2.4445,-2.4445,0,-2.4834,-2.481,-2.4799,-2.4771,-2.4762,-2.4726,-2.47,-2.4694,-2.4687,-2.4661,-2.4647,-2.4633,-2.4617,-2.4576,-2.4557,-2.4558,-2.4539,-2.4555,-2.4553,-2.4549,-2.4469,-2.4466,-2.4571,-2.4571,-2.4571,-2.4571,-2.4571,-2.4571,-2.4881,-2.4886,-2.4861,-2.4856,-2.4832,-2.4823,-2.4811,-2.4794,-2.4773,-2.476,-2.4748,-2.4722,-2.469,-2.4668,-2.4653,-2.4641,-2.4636,-2.4658,-2.464,-2.4566,-2.4554,-2.4543,-2.4539,-2.4658,-2.4658,-2.472,-2.472,-2.4721]},{"header":{"parameterUnit":"m.s-1","parameterCategory":1,"la1":30.2991,"la2":30.254,"lo1":-89.0895,"lo2":-89.0444,"dy":0.0017,"dx":0.0017,"nx":28,"ny":28,"refTime":"2025-04-23T03:00:00:Z","depth":0,"parameterNumber":3,"parameterNumberName":"V-component_of_WINDS"},"data":[0,0,0,0,0,0,0,0,0,0,0,0,0,0,0,0,0,0,0,0,0,0,0,0,0,0,0,0,0,0,0,0,0,0,0,0,0,0,0,0,0,0,0,0,0,0,0,0,0,0,0,0,0,0,0,0,0,0,2.5806,2.5807,0,2.5828,2.5828,2.5828,2.5901,2.5902,2.5904,2.5905,2.5922,2.5921,2.592,0,0,0,0,0,0,0,0,0,0,0,0,0,2.5824,2.5824,2.5806,2.5807,2.5807,2.5828,2.5828,2.5828,2.59,2.5902,2.5904,2.5906,2.5922,2.5921,2.592,0,0,0,0,0,0,0,0,0,0,0,0,0,2.5828,2.5823,2.5806,2.5845,2.5849,2.5827,2.5828,2.5828,2.59,2.5902,2.5905,2.5907,2.5923,2.5921,2.592,2.586,0,0,2.5915,2.5914,0,0,0,0,0,0,0,0,2.5828,2.5827,2.5839,2.5843,2.5847,2.5864,2.584,2.5839,2.5899,2.588,2.5905,2.5908,2.59,2.5901,2.5899,2.5861,2.5862,2.5914,2.5913,2.5913,2.5912,0,0,0,0,0,0,0,2.5827,2.5827,2.5815,2.5839,2.5844,2.5861,2.5864,2.584,2.5876,2.5882,2.5888,2.5889,2.5903,2.5901,2.59,2.5862,2.5914,2.5913,2.5912,2.5911,2.5777,2.5774,0,0,0,0,0,0,2.5822,2.5826,2.5814,2.5815,2.5843,2.5858,2.5862,2.5856,2.5877,2.5882,2.5887,2.5893,2.5902,2.5902,2.5901,2.5833,2.5913,2.5911,2.591,2.5779,2.5776,2.5773,0,0,0,0,0,0,2.5822,2.582,2.5813,2.5822,2.5823,2.5856,2.5848,2.5855,2.5853,2.5881,2.5887,2.5879,2.5904,2.5903,2.587,2.5834,2.591,2.5909,2.5782,2.5778,2.5775,2.5696,0,0,0,0,0,0,2.5822,2.582,2.5798,2.5821,2.5822,2.5783,2.5846,2.5854,2.585,2.5858,2.5874,2.5879,2.5906,2.5872,2.5869,2.5834,2.5908,2.5785,2.578,2.5776,2.5702,2.569,2.568,0,0,0,0,0,2.5823,2.5774,2.5797,2.5795,2.5796,2.5781,2.5781,2.5814,2.5847,2.5825,2.5843,2.5878,2.5839,2.5868,2.5865,2.5829,2.5788,2.5782,2.5776,2.5707,2.5692,2.568,0,0,0,0,0,0,2.5744,2.5778,2.5803,2.5761,2.5768,2.5793,2.5766,2.5798,2.5794,2.58,2.5841,2.5844,2.5805,2.5814,2.5845,2.5773,2.5819,2.5813,2.5768,2.5754,2.5743,2.5741,2.5906,0,0,0,0,0,2.5722,2.5709,2.5738,2.5698,2.57,2.5732,2.5727,2.5753,2.576,2.5763,2.5779,2.5783,2.5773,2.5764,2.5755,2.5704,2.5708,2.5678,2.5666,2.5657,2.565,2.5624,2.561,2.5754,2.5754,2.5754,0,0,2.5676,2.5693,2.5681,2.5683,2.5691,2.5674,2.5734,2.5714,2.5702,2.5759,2.573,2.5741,2.5749,2.5707,2.5689,2.5713,2.5612,2.565,2.5642,2.564,2.5616,2.5603,2.5591,2.575,2.5751,2.5751,0,0,2.5583,2.5595,2.5563,2.5571,2.5583,2.5605,2.5598,2.5619,2.5629,2.56,2.5643,2.5629,2.5609,2.5613,2.5613,2.5524,2.5556,2.552,2.5461,2.5435,2.5423,2.5413,2.5381,2.5369,2.5513,2.5513,2.5513,0,2.5524,2.5503,2.5542,2.552,2.5519,2.5573,2.554,2.5545,2.5553,2.555,2.5578,2.5555,2.5564,2.5524,2.5502,2.55,2.5492,2.5517,2.5422,2.5413,2.5404,2.5373,2.5361,2.5508,2.5509,2.5509,2.551,0,2.5428,2.5413,2.5385,2.5394,2.539,2.5363,2.5397,2.5388,2.5414,2.5433,2.5403,2.5417,2.5412,2.5405,2.5429,2.5367,2.5382,2.5415,2.5463,2.5385,2.5357,2.5346,2.5502,2.5504,2.5505,2.5506,0,0,2.5285,2.5318,2.5307,2.5312,2.533,2.5318,2.5293,2.5291,2.5282,2.5286,2.5265,2.5248,2.528,2.5279,2.5305,2.5282,2.521,2.5318,2.5319,2.5297,2.5142,2.5117,2.5103,2.5232,2.523,2.5228,2.5142,0,2.5197,2.5157,2.5193,2.5146,2.5132,2.5183,2.5161,2.5169,2.5187,2.5177,2.5195,2.5182,2.5225,2.5225,2.5205,2.5223,2.5179,2.523,2.5212,2.521,2.5207,2.5088,2.5061,2.4978,2.5131,2.5129,2.5128,0,2.5088,2.509,2.5041,2.5064,2.506,2.5039,2.504,2.503,2.5041,2.5055,2.5055,2.5088,2.5064,2.5112,2.5078,2.5112,2.5107,2.5115,2.5112,2.5111,2.5163,2.5082,2.4952,2.4939,2.5111,2.5112,2.5114,0,2.4988,2.4977,2.4948,2.495,2.4976,2.4961,2.497,2.4984,2.498,2.498,2.4978,2.4975,2.4973,2.4969,2.4999,2.5032,2.4962,2.5013,2.4972,2.4971,2.4954,2.4954,2.482,2.4952,2.4952,2.4953,2.4953,0,2.4885,2.4853,2.4903,2.4884,2.4851,2.4892,2.4856,2.4871,2.4883,2.4867,2.4911,2.4895,2.4937,2.4925,2.4949,2.4918,2.4917,2.4927,2.4933,2.4922,2.4921,2.4918,2.4924,2.4949,2.495,2.4951,2.4951,0,2.4766,2.4798,2.4769,2.4797,2.4803,2.4777,2.48,2.4783,2.4805,2.4784,2.4782,2.4814,2.4803,2.4834,2.4826,2.4842,2.4797,2.4813,2.4794,2.4798,2.4756,2.4759,2.4614,2.4597,2.4741,2.4739,2.4738,0,2.4698,2.4675,2.4701,2.4695,2.4703,2.4692,2.4689,2.4728,2.4723,2.4735,2.4716,2.4709,2.4705,2.4684,2.4706,2.4701,2.4717,2.4667,2.4716,2.4706,2.4715,2.4716,2.4713,2.4656,2.4654,2.4652,2.4651,0,2.4573,2.459,2.4586,2.4586,2.4582,2.4584,2.4589,2.4581,2.4624,2.4616,2.4606,2.4603,2.4597,2.4589,2.4589,2.4597,2.463,2.4636,2.4626,2.4614,2.4604,2.4608,2.4765,2.4639,2.464,2.4641,2.4641,2.4642,2.4477,2.4459,2.4475,2.4468,2.4477,2.4481,2.4467,2.4487,2.448,2.4479,2.4503,2.4488,2.4499,2.4503,2.4509,2.4497,2.4519,2.4505,2.4502,2.4497,2.449,2.4607,2.4497,2.4497,2.4498,2.4498,2.4498,0,2.4354,2.4367,2.4361,2.4367,2.4362,2.4397,2.4404,2.4397,2.4383,2.4392,2.4388,2.4377,2.4369,2.4392,2.4387,2.4373,2.4389,2.4371,2.4372,2.4373,2.447,2.4479,2.4359,2.4359,2.4359,2.4359,2.4359,2.4359,2.4289,2.4261,2.4281,2.4257,2.4271,2.4258,2.4259,2.4263,2.427,2.4256,2.4251,2.4266,2.428,2.4278,2.4272,2.4279,2.4275,2.4251,2.4263,2.4353,2.4366,2.4379,2.4387,2.425,2.425,2.4167,2.4166,2.4165]}]]